Printer-friendly version

IAU Minor Planet Center

Minor Planet Center

MPEC 2005-N78 : 2005 NA56

The following Minor Planet Electronic Circular may be linked-to from your own Web pages, but must not otherwise be redistributed electronically.


Read MPEC 2005-N77 Read MPEC 2005-O01


M.P.E.C. 2005-N78                                Issued 2005 July 15, 19:00 UT

     The Minor Planet Electronic Circulars contain information on unusual
         minor planets and routine data on comets.  They are published
   on behalf of Commission 20 of the International Astronomical Union by the
          Minor Planet Center, Smithsonian Astrophysical Observatory,
                          Cambridge, MA 02138, U.S.A.

                  Supported in part by the Brinson Foundation
             Prepared using the Tamkin Foundation Computer Network

                              MPC@CFA.HARVARD.EDU
          URL http://cfa-www.harvard.edu/iau/mpc.html  ISSN 1523-6714

                                   2005 NA56

Observations:
     K05N56A* C2005 07 05.38544 21 33 13.17 -13 40 35.5          21.0 V EN078G96
     K05N56A  C2005 07 05.39349 21 33 12.81 -13 40 38.3          21.2 V EN078G96
     K05N56A  C2005 07 05.40153 21 33 12.49 -13 40 41.0          21.3 V EN078G96
     K05N56A  C2005 07 05.40955 21 33 12.13 -13 40 43.5          21.5 V EN078G96
     K05N56A 1C2005 07 06.64722 21 32 22.09 -13 48 12.0          21.1 R EN078413
     K05N56A 1C2005 07 06.66156 21 32 21.50 -13 48 17.2          21.0 R EN078413
     K05N56A  C2005 07 11.40591 21 28 51.01 -14 18 45.6          21.1   EN078G96
     K05N56A  C2005 07 11.40679 21 28 50.99 -14 18 46.2          21.5   EN078G96
     K05N56A  C2005 07 11.40768 21 28 50.94 -14 18 46.4          20.9   EN078G96
     K05N56A  C2005 07 11.40857 21 28 50.90 -14 18 47.1          21.3   EN078G96
     K05N56A  C2005 07 12.35986 21 28 05.59 -14 25 08.4          21.4 V EN078G96
     K05N56A  C2005 07 12.36800 21 28 05.16 -14 25 11.3          21.1 V EN078G96
     K05N56A  C2005 07 12.37605 21 28 04.76 -14 25 14.2          21.7 V EN078G96
     K05N56A  C2005 07 12.38412 21 28 04.36 -14 25 18.1          20.9 V EN078G96
     K05N56A HC2005 07 15.34226 21 25 36.83 -14 45 26.0                 EN078291
     K05N56A HC2005 07 15.34724 21 25 36.70 -14 45 30.3                 EN078291
     K05N56A  C2005 07 15.35328 21 25 36.41 -14 45 33.1                 EN078291

Observer details:
291 LPL/Spacewatch II.  Observer T. H. Bressi.  1.8-m f/2.7 reflector + CCD.
413 Siding Spring.  Observer R. H. McNaught.  1.0-m f/8 reflector + CCD.
G96 Mt. Lemmon Survey.  Observers S. M. Larson, S. Larson.  Measurers
    E. C. Beshore, C. M. Casey, E. J. Christensen, G. J. Garradd, A. D. Grauer,
    R. E. Hill, S. M. Larson, R. H. McNaught.  0.5-m reflector + CCD, 1.5-m
    reflector + CCD.

Orbital elements:
2005 NA56
Epoch 2005 July 9.0 TT = JDT 2453560.5                  MPC
M  46.70222              (2000.0)            P               Q
n   0.18392356     Peri.   64.71437     -0.95354581     +0.27697055
a   3.0622770      Node   131.12644     -0.30022136     -0.90615533
e   0.5525525      Incl.    9.04968     +0.02485007     -0.31964016
P   5.36           H   16.9           G   0.15
From 16 observations 2005 July 5-15.

Ephemeris:
2005 NA56                a,e,i = 3.06, 0.55, 9                   q = 1.3702
Date    TT    R. A. (2000) Decl.     Delta      r     Elong.  Phase     V
2005 07 09    21 30.69   -14 03.0    1.794    2.700   146.3    12.0    21.1
2005 07 19    21 22.39   -15 11.1    1.790    2.759   158.1     7.9    20.9
2005 07 29    21 12.83   -16 23.2    1.812    2.818   170.2     3.5    20.8
2005 08 08    21 02.94   -17 33.2    1.863    2.876   177.5     0.9    20.7
2005 08 18    20 53.73   -18 35.6    1.942    2.933   165.5     4.9    21.1
2005 08 28    20 46.04   -19 27.1    2.049    2.989   153.9     8.5    21.4
2005 09 07    20 40.41   -20 06.1    2.180    3.044   142.8    11.5    21.7
2005 09 17    20 37.15   -20 32.6    2.332    3.098   132.2    13.9    22.0

Kyle E. Smalley              (C) Copyright 2005 MPC           M.P.E.C. 2005-N78

Read MPEC 2005-N77 Read MPEC 2005-O01


Our Web policy. Index to the CBAT/MPC/ICQ pages.


Valid HTML 4.01!